Location: Krakow
(50.0830°N, 19.9170°E)
Time: 22:17:59
(UTC+02:00)

UNISAT 6 - Visible Passes

Search period start: 30 May 2024 00:00
Search period end: 09 June 2024 00:00
Orbit: 593 x 667 km, 97.7° (Epoch: 30 May)

Date Brightness Start Highest point End Pass type
(mag) Time Alt. Az. Time Alt. Az. Time Alt. Az.
30 May ? 02:42:05 10° ENE 02:43:15 11° NE 02:44:25 10° NE visible
31 May ? 03:00:43 10° E 03:03:19 16° ENE 03:05:57 10° NNE visible
01 Jun ? 03:20:04 10° ESE 03:23:26 23° ENE 03:26:51 10° N visible
02 Jun ? 03:39:45 10° SE 03:43:35 34° ENE 03:47:31 10° N visible
04 Jun ? 02:46:39 10° E 02:48:29 13° NE 02:50:20 10° NNE visible
05 Jun ? 03:05:36 10° ESE 03:08:31 18° ENE 03:11:30 10° NNE visible
06 Jun ? 03:25:04 10° ESE 03:28:37 26° ENE 03:32:16 10° N visible
07 Jun ? 03:44:48 10° SE 03:48:47 39° ENE 03:52:52 10° N visible
